Weather History for Phuket, Thailand

Change the Weather History Date:

Wednesday, November 16, 2011

  Actual Average Record
Temperature  
Mean Temperature 82 °F -  
Max Temperature 90 °F 88 °F 96 °F (1996)
Min Temperature 75 °F 74 °F 73 °F (2007)
Cooling Degree Days 18    
Growing Degree Days 32 (Base 50)    
Moisture  
Dew Point 73 °F    
Average Humidity 77    
Maximum Humidity 94    
Minimum Humidity 47    
Precipitation  
Precipitation 0.00 in 0.16 in - ()
Sea Level Pressure  
Sea Level Pressure 29.84 in    
Wind  
Wind Speed 2 mph ()    
Max Wind Speed 10 mph    
Max Gust Speed -    
Visibility 5.6 miles    
Events Rain , Thunderstorm    
Averages and records for this station are not official NWS values.
T = Trace of Precipitation, MM = Missing Value Source: Averaged Metar Reports

Daily Weather History Graph

Daily Weather History Graph

Search for Another Location

Airport:

Trip Planner

Search our weather history database for the weather conditions in past years. The results will help you decide how hot, cold, wet, or windy it might be!

Date:

Astronomy

Nov. 16, 2011 Rise Set
Actual Time 6:18 AM ICT 6:03 PM ICT
Civil Twilight 5:56 AM ICT 6:25 PM ICT
Nautical Twilight 5:31 AM ICT 6:51 PM ICT
Astronomical Twilight 5:05 AM ICT 7:16 PM ICT
Moon 10:40 PM ICT (11/16) 10:35 AM ICT (11/16)
Length of Visible Light 12h 29m
Length of Day
11h 45m
Waning Gibbous, 75% of the Moon is Illuminated
Nov 16
Waning Gibbous
Nov 18
Last Quarter
Nov 25
New
Dec 2
First Quarter
Dec 10
Full

Hourly Weather History & Observations

Time (ICT) Temp. Heat Index Dew Point Humidity Pressure Visibility Wind Dir Wind Speed Gust Speed Precip Events Conditions
12:00 AM 77.0 °F - 73.4 °F 89% 29.86 in 5.0 mi Calm Calm - N/A   Mostly Cloudy
12:30 AM 77.0 °F - 73.4 °F 89% 29.86 in 5.0 mi Calm Calm - N/A   Mostly Cloudy
1:00 AM 77 °F - 74 °F 88% 29.84 in 6 mi Calm Calm - -   Mist
1:00 AM 77.0 °F - 73.4 °F 89% 29.86 in 5.0 mi Calm Calm - N/A   Mostly Cloudy
1:30 AM 75.2 °F - 73.4 °F 94% 29.86 in 5.0 mi Calm Calm - N/A   Mostly Cloudy
2:00 AM 75.2 °F - 73.4 °F 94% 29.83 in 5.0 mi Calm Calm - N/A   Mostly Cloudy
2:30 AM 75.2 °F - 73.4 °F 94% 29.83 in 5.6 mi Calm Calm - N/A   Mostly Cloudy
3:00 AM 75.2 °F - 73.4 °F 94% 29.83 in 5.6 mi Calm Calm - N/A   Mostly Cloudy
3:30 AM 75.2 °F - 73.4 °F 94% 29.83 in 5.6 mi Calm Calm - N/A   Mostly Cloudy
4:00 AM 75.2 °F - 73.4 °F 94% 29.83 in - Calm Calm - N/A   Mostly Cloudy
5:00 AM 75.2 °F - 71.6 °F 89% 29.83 in 5.6 mi Calm Calm - N/A   Mostly Cloudy
5:30 AM 75.2 °F - 71.6 °F 89% 29.83 in 5.6 mi Calm Calm - N/A   Mostly Cloudy
7:00 AM 76 °F - 75 °F 94% 29.83 in 6 mi Calm Calm - -   Mist
7:00 AM 75.2 °F - 73.4 °F 94% 29.86 in 5.6 mi Calm Calm - N/A   Scattered Clouds
7:30 AM 77.0 °F - 75.2 °F 94% 29.86 in 5.6 mi East 3.5 mph - N/A   Scattered Clouds
8:00 AM 80.6 °F 85.4 °F 73.4 °F 79% 29.86 in 5.6 mi East 3.5 mph - N/A   Scattered Clouds
8:30 AM 82.4 °F 88.2 °F 73.4 °F 74% 29.86 in 6.2 mi East 5.8 mph - N/A   Partly Cloudy
9:00 AM 82.4 °F 87.2 °F 71.6 °F 70% 29.89 in 6.2 mi East 6.9 mph - N/A   Partly Cloudy
9:30 AM 84.2 °F 89.6 °F 71.6 °F 66% 29.89 in 6.2 mi East 5.8 mph - N/A   Partly Cloudy
10:00 AM 84.2 °F 89.6 °F 71.6 °F 66% 29.89 in 6.2 mi ENE 6.9 mph - N/A   Partly Cloudy
10:30 AM 86.0 °F 91.8 °F 71.6 °F 62% 29.89 in 6.2 mi East 5.8 mph - N/A   Partly Cloudy
11:00 AM 86.0 °F 91.8 °F 71.6 °F 62% 29.89 in 6.2 mi Variable 3.5 mph - N/A   Partly Cloudy
11:30 AM 87.8 °F 92.6 °F 69.8 °F 55% 29.86 in 6.2 mi East 5.8 mph - N/A   Partly Cloudy
12:00 PM 87.8 °F 92.6 °F 69.8 °F 55% 29.86 in - East 8.1 mph - N/A   Unknown
12:30 PM 87.8 °F 93.8 °F 71.6 °F 58% 29.83 in 6.2 mi East 9.2 mph - N/A   Partly Cloudy
1:00 PM 89 °F - 71 °F 47% 29.83 in 6 mi East 5.8 mph - -   Scattered Clouds
1:00 PM 87.8 °F 93.8 °F 71.6 °F 58% 29.80 in 6.2 mi East 9.2 mph - N/A   Partly Cloudy
1:30 PM 87.8 °F 93.8 °F 71.6 °F 58% 29.80 in 6.2 mi East 6.9 mph - N/A   Scattered Clouds
2:00 PM 86.0 °F 93.4 °F 73.4 °F 66% 29.80 in 6.2 mi WNW 5.8 mph - N/A   Scattered Clouds
2:30 PM 87.8 °F 93.8 °F 71.6 °F 58% 29.77 in 6.2 mi West 5.8 mph - N/A   Mostly Cloudy
3:00 PM 87.8 °F 93.8 °F 71.6 °F 58% 29.77 in 6.2 mi West 9.2 mph - N/A   Mostly Cloudy
3:30 PM 86.0 °F 91.8 °F 71.6 °F 62% 29.77 in 6.2 mi WNW 9.2 mph - N/A   Mostly Cloudy
4:00 PM 86.0 °F 91.8 °F 71.6 °F 62% 29.77 in 6.2 mi West 9.2 mph - N/A   Mostly Cloudy
5:00 PM 86.0 °F 91.8 °F 71.6 °F 62% 29.77 in 6.2 mi West 10.4 mph - N/A   Mostly Cloudy
5:30 PM 84.2 °F 89.6 °F 71.6 °F 66% 29.77 in 6.2 mi West 9.2 mph - N/A   Mostly Cloudy
6:00 PM 82.4 °F 88.2 °F 73.4 °F 74% 29.80 in 5.0 mi WNW 5.8 mph - N/A Thunderstorm Thunderstorm
6:30 PM 82.4 °F 87.2 °F 71.6 °F 70% 29.80 in 5.0 mi NW 4.6 mph - N/A   Mostly Cloudy
7:00 PM 82 °F - 75 °F 75% 29.80 in 4 mi Calm Calm - -   Partly Cloudy
7:00 PM 80.6 °F 84.6 °F 71.6 °F 74% 29.83 in 5.0 mi NE 5.8 mph - N/A   Mostly Cloudy
7:30 PM 80.6 °F 85.4 °F 73.4 °F 79% 29.83 in 5.0 mi Variable 2.3 mph - N/A   Mostly Cloudy
8:00 PM 80.6 °F 85.4 °F 73.4 °F 79% 29.83 in 5.0 mi NE 3.5 mph - N/A   Mostly Cloudy
8:30 PM 80.6 °F 85.4 °F 73.4 °F 79% 29.83 in 3.1 mi ENE 4.6 mph - N/A Rain Rain
9:00 PM 78.8 °F - 73.4 °F 83% - 4.3 mi Variable 2.3 mph - N/A   Mostly Cloudy
9:30 PM 78.8 °F - 75.2 °F 89% 29.89 in 5.0 mi Calm Calm - N/A   Mostly Cloudy
10:00 PM 78.8 °F - 75.2 °F 89% 29.89 in 5.6 mi Calm Calm - N/A   Scattered Clouds
10:30 PM 77.0 °F - 73.4 °F 89% 29.89 in 5.6 mi Calm Calm - N/A   Mostly Cloudy
11:00 PM 77.0 °F - 75.2 °F 94% 29.86 in 5.6 mi Variable 2.3 mph - N/A   Mostly Cloudy